Starlink 2608

operational
NORAD ID: 48365 Int'l Des: 2021-038 Owner: SPXS Country: US Constellation: starlink
LEOCIRCULARSTARLINK_TYPE

Starlink 2608について

説明を読み込み中...

リアルタイム位置

3D地球を読み込み中...

次回通過

高度履歴

Altitude vs Time

uPlot chart will show altitude changes over time

軌道要素

1 48365U 21038N 25296.58340111 .00002979 00000-0 21878-3 0 9993
2 48365 53.0553 252.1055 0001517 92.3003 267.8159 15.06400452246434
Epoch: Oct 23, 2025 • Age: 27 hours

現在のステータス

高度 549.5 km
速度 7.59 km/s
衛星直下点 37.10°N, 11.2°W
打ち上げ日 May 4, 2021
運用期間 4.4 years
タイプ internet

技術仕様

分類 Payload
質量 260.00 kg
乾燥質量 248.00 kg
総質量 260.00 kg
長さ 0.20 m
直径 2.80 m
スパン 9.00 m
形状 Box + pan
製造者 SPXS
バスタイプ Starlink
フェーズステータス In Orbit
所有者/国 SPXS/US

大規模コンステレーション

Loading constellations...